.
WxDataArchive / Data Records for 2011-01-15
2011-01-14 January 2011 2011-01-16

Data Records for Saturday, 15 January 2011

Time	Temp	Chill	HIndex	Humid	Dewpt	 Wind 	HiWind	WindDir	Rain 	Barom 
-----	----	-----	------	-----	-----	------	------	-------	-----	----- 
00:00	23.6	23.6	23.6	77	17.5	0	1	248	0.00	30.173 
00:05	23.6	23.6	23.6	77	17.5	0	2	248	0.00	30.173 
00:10	23.8	23.8	23.8	77	17.7	0	1	248	0.00	30.173 
00:15	23.8	23.8	23.8	77	17.7	0	3	248	0.00	30.161 
00:20	23.8	23.8	23.8	77	17.7	1	2	248	0.00	30.161 
00:25	23.9	23.9	23.9	77	17.8	1	5	248	0.00	30.161 
00:30	23.9	23.9	23.9	77	17.8	0	2	248	0.00	30.149 
00:35	24.1	24.1	24.1	77	18.0	0	3	248	0.00	30.149 
00:40	24.1	24.1	24.1	77	18.0	1	3	248	0.00	30.149 
00:45	24.1	24.1	24.1	77	18.0	1	4	248	0.00	30.146 
00:50	24.1	24.1	24.1	77	18.0	1	5	248	0.00	30.146 
00:55	24.1	24.1	24.1	77	18.0	1	4	225	0.00	30.146 
01:00	24.2	24.2	24.2	77	18.1	1	4	248	0.00	30.132 
01:05	24.2	24.2	24.2	76	17.7	1	2	248	0.00	30.132 
01:10	24.2	24.2	24.2	77	18.1	0	3	248	0.00	30.132 
01:15	24.2	24.2	24.2	77	18.1	1	4	248	0.00	30.122 
01:20	24.2	24.2	24.2	77	18.1	0	2	248	0.00	30.122 
01:25	24.4	24.4	24.4	77	18.2	1	2	248	0.00	30.122 
01:30	24.4	24.4	24.4	77	18.2	1	5	248	0.00	30.115 
01:35	24.5	24.5	24.5	77	18.3	1	3	248	0.00	30.115 
01:40	24.5	24.5	24.5	77	18.3	1	5	248	0.00	30.115 
01:45	24.7	24.7	24.7	77	18.5	1	5	248	0.00	30.114 
01:50	24.7	24.7	24.7	76	18.2	1	3	248	0.00	30.114 
01:55	24.8	24.8	24.8	76	18.3	1	4	270	0.00	30.114 
02:00	25.0	25.0	25.0	76	18.5	1	4	248	0.00	30.106 
02:05	25.0	25.0	25.0	76	18.5	1	2	248	0.00	30.106 
02:10	25.1	25.1	25.1	76	18.6	1	6	225	0.00	30.106 
02:15	25.1	25.1	25.1	76	18.6	1	4	248	0.00	30.098 
02:20	25.3	25.3	25.3	76	18.8	1	3	248	0.00	30.098 
02:25	25.3	25.3	25.3	76	18.8	1	5	270	0.00	30.098 
02:30	25.3	25.3	25.3	76	18.8	1	4	248	0.00	30.092 
02:35	25.4	25.4	25.4	76	18.9	1	5	248	0.00	30.092 
02:40	25.4	25.4	25.4	76	18.9	1	5	248	0.00	30.092 
02:45	25.4	25.4	25.4	76	18.9	1	5	248	0.00	30.096 
02:50	25.6	25.6	25.6	77	19.4	1	3	248	0.00	30.096 
02:55	25.6	25.6	25.6	77	19.4	1	4	248	0.00	30.096 
03:00	25.7	25.7	25.7	77	19.5	1	5	248	0.00	30.089 
03:05	25.8	25.8	25.8	76	19.3	1	3	248	0.00	30.089 
03:10	25.8	25.8	25.8	76	19.3	1	3	225	0.00	30.089 
03:15	26.0	26.0	26.0	77	19.8	1	4	225	0.00	30.068 
03:20	26.0	26.0	26.0	76	19.5	2	5	248	0.00	30.068 
03:25	26.1	26.1	26.1	76	19.6	1	4	248	0.00	30.068 
03:30	26.1	26.1	26.1	76	19.6	1	4	248	0.00	30.062 
03:35	26.1	26.1	26.1	76	19.6	1	5	248	0.00	30.062 
03:40	26.3	26.3	26.3	76	19.8	1	5	248	0.00	30.062 
03:45	26.3	26.3	26.3	76	19.8	1	5	225	0.00	30.045 
03:50	26.3	26.3	26.3	76	19.8	2	4	248	0.00	30.045 
03:55	26.4	26.4	26.4	76	19.9	2	5	248	0.00	30.045 
04:00	26.4	26.4	26.4	77	20.2	1	4	248	0.00	30.035 
04:05	26.4	26.4	26.4	77	20.2	2	6	248	0.00	30.035 
04:10	26.6	26.6	26.6	77	20.4	1	4	248	0.00	30.035 
04:15	26.6	26.6	26.6	77	20.4	2	4	248	0.00	30.032 
04:20	26.6	26.6	26.6	77	20.4	1	3	225	0.00	30.032 
04:25	26.6	26.6	26.6	77	20.4	2	5	248	0.00	30.032 
04:30	26.7	26.7	26.7	78	20.8	1	4	248	0.00	30.017 
04:35	26.7	26.7	26.7	78	20.8	1	4	248	0.00	30.017 
04:40	26.9	26.9	26.9	78	21.0	2	5	248	0.00	30.017 
04:45	27.0	27.0	27.0	78	21.1	1	4	248	0.00	30.004 
04:50	27.2	27.2	27.2	78	21.3	1	6	248	0.00	30.004 
04:55	27.2	27.2	27.2	78	21.3	2	4	248	0.00	30.004 
05:00	27.3	27.3	27.3	78	21.4	2	5	248	0.00	29.994 
05:05	27.5	27.5	27.5	78	21.6	2	4	248	0.00	29.994 
05:10	27.5	27.5	27.5	78	21.6	1	4	248	0.00	29.994 
05:15	27.6	27.6	27.6	78	21.7	1	4	248	0.00	29.974 
05:20	27.6	27.6	27.6	78	21.7	1	4	248	0.00	29.974 
05:25	27.8	27.8	27.8	78	21.8	2	6	248	0.00	29.974 
05:30	27.9	27.9	27.9	79	22.2	1	4	248	0.00	29.968 
05:35	28.1	28.1	28.1	79	22.4	2	5	248	0.00	29.968 
05:40	28.2	28.2	28.2	79	22.5	2	9	248	0.00	29.968 
05:45	28.4	28.4	28.4	79	22.7	3	7	248	0.00	29.963 
05:50	28.4	28.4	28.4	79	22.7	2	4	248	0.00	29.963 
05:55	28.4	28.4	28.4	79	22.7	2	5	248	0.00	29.963 
06:00	28.4	28.4	28.4	79	22.7	2	7	248	0.00	29.956 
06:05	28.5	28.5	28.5	79	22.8	2	5	248	0.00	29.956 
06:10	28.5	28.5	28.5	79	22.8	2	6	248	0.00	29.956 
06:15	28.7	28.7	28.7	79	23.0	2	6	248	0.00	29.943 
06:20	28.8	28.8	28.8	78	22.8	3	7	248	0.00	29.943 
06:25	29.0	29.0	29.0	78	23.0	2	6	248	0.00	29.943 
06:30	29.0	29.0	29.0	78	23.0	2	7	248	0.00	29.939 
06:35	29.1	29.1	29.1	77	22.8	2	6	248	0.00	29.939 
06:40	29.1	29.1	29.1	77	22.8	2	5	248	0.00	29.939 
06:45	29.3	29.3	29.3	77	23.0	3	6	248	0.00	29.930 
06:50	29.4	29.4	29.4	76	22.8	3	7	225	0.00	29.930 
06:55	29.5	29.5	29.5	75	22.6	3	7	248	0.00	29.930 
07:00	29.5	29.5	29.5	75	22.6	2	5	248	0.00	29.928 
07:05	29.7	29.7	29.7	75	22.8	2	10	248	0.00	29.928 
07:10	29.8	29.8	29.8	75	22.9	3	7	248	0.00	29.928 
07:15	30.0	30.0	30.0	74	22.7	2	6	248	0.00	29.924 
07:20	30.1	30.1	30.1	74	22.8	3	7	248	0.00	29.924 
07:25	30.4	26.2	30.4	73	22.8	4	7	248	0.00	29.924 
07:30	30.7	26.6	30.7	73	23.1	4	9	248	0.00	29.922 
07:35	31.2	26.1	31.2	72	23.2	5	14	270	0.00	29.922 
07:40	31.5	26.5	31.5	71	23.2	5	15	248	0.00	29.922 
07:45	31.6	26.6	31.6	71	23.3	5	12	248	0.00	29.923 
07:50	31.6	26.6	31.6	71	23.3	5	13	270	0.00	29.923 
07:55	31.6	31.6	31.6	71	23.3	3	11	270	0.00	29.923 
08:00	31.6	26.6	31.6	71	23.3	5	13	248	0.00	29.918 
08:05	31.5	27.5	31.5	71	23.2	4	10	270	0.00	29.918 
08:10	31.5	26.5	31.5	71	23.2	5	11	270	0.00	29.918 
08:15	31.6	26.6	31.6	71	23.3	5	11	270	0.00	29.922 
08:20	31.5	27.5	31.5	71	23.2	4	10	270	0.00	29.922 
08:25	31.6	26.6	31.6	71	23.3	5	14	270	0.00	29.922 
08:30	31.6	26.6	31.6	71	23.3	5	11	270	0.00	29.923 
08:35	31.6	27.6	31.6	72	23.6	4	11	270	0.00	29.923 
08:40	31.5	27.5	31.5	72	23.5	4	10	270	0.00	29.923 
08:45	31.5	27.5	31.5	72	23.5	4	11	270	0.00	29.935 
08:50	31.3	27.3	31.3	73	23.7	4	9	270	0.00	29.935 
08:55	31.2	27.2	31.2	73	23.6	4	6	270	0.00	29.935 
09:00	31.0	26.9	31.0	73	23.4	4	12	270	0.00	29.938 
09:05	30.9	25.8	30.9	73	23.3	5	10	270	0.00	29.938 
09:10	30.9	25.8	30.9	73	23.3	5	12	270	0.00	29.938 
09:15	30.7	26.6	30.7	74	23.4	4	11	270	0.00	29.950 
09:20	30.4	24.3	30.4	73	22.8	6	13	270	0.00	29.950 
09:25	30.3	26.1	30.3	74	23.0	4	9	270	0.00	29.950 
09:30	30.1	25.9	30.1	74	22.8	4	7	248	0.00	29.955 
09:35	30.1	25.9	30.1	74	22.8	4	7	270	0.00	29.955 
09:40	30.0	25.8	30.0	74	22.7	4	10	270	0.00	29.955 
09:45	29.8	29.8	29.8	75	22.9	3	7	248	0.00	29.958 
09:50	29.8	29.8	29.8	75	22.9	2	4	248	0.00	29.958 
09:55	29.7	29.7	29.7	75	22.8	3	6	248	0.00	29.958 
10:00	29.7	25.4	29.7	75	22.8	4	11	270	0.00	29.968 
10:05	29.5	24.1	29.5	75	22.6	5	9	270	0.00	29.968 
10:10	29.4	25.1	29.4	75	22.5	4	9	270	0.00	29.968 
10:15	29.1	24.7	29.1	75	22.2	4	10	270	0.00	29.976 
10:20	28.8	23.3	28.8	75	21.9	5	10	270	0.00	29.976 
10:25	28.7	24.3	28.7	75	21.8	4	7	270	0.00	29.976 
10:30	28.5	24.0	28.5	76	21.9	4	7	248	0.00	29.997 
10:35	28.4	23.9	28.4	76	21.8	4	7	292	0.00	29.997 
10:40	28.2	22.6	28.2	76	21.6	5	10	270	0.00	29.997 
10:45	28.1	23.6	28.1	77	21.8	4	7	270	0.00	30.018 
10:50	27.9	23.3	27.9	77	21.6	4	7	270	0.00	30.018 
10:55	28.1	28.1	28.1	77	21.8	3	7	270	0.00	30.018 
11:00	28.1	23.6	28.1	77	21.8	4	9	270	0.00	30.021 
11:05	28.1	28.1	28.1	78	22.1	3	7	270	0.00	30.021 
11:10	27.9	27.9	27.9	78	21.9	3	5	270	0.00	30.021 
11:15	27.9	27.9	27.9	79	22.2	3	6	248	0.00	30.019 
11:20	28.2	28.2	28.2	79	22.5	3	10	248	0.00	30.019 
11:25	28.2	28.2	28.2	78	22.2	3	7	270	0.00	30.019 
11:30	28.4	28.4	28.4	77	22.1	3	6	270	0.00	30.018 
11:35	28.1	23.6	28.1	76	21.5	4	7	270	0.00	30.018 
11:40	27.9	23.3	27.9	75	21.0	4	7	270	0.00	30.018 
11:45	27.9	27.9	27.9	75	21.0	3	6	270	0.00	30.017 
11:50	28.4	28.4	28.4	75	21.5	2	4	270	0.00	30.017 
11:55	28.4	23.9	28.4	73	20.9	4	6	270	0.00	30.017 
12:00	28.4	28.4	28.4	72	20.5	3	6	270	0.00	30.008 
12:05	28.5	28.5	28.5	72	20.6	2	5	248	0.00	30.008 
12:10	28.2	28.2	28.2	70	19.7	3	6	315	0.00	30.008 
12:15	28.1	28.1	28.1	70	19.6	3	6	315	0.00	30.009 
12:20	28.2	28.2	28.2	70	19.7	3	6	248	0.00	30.009 
12:25	28.2	28.2	28.2	70	19.7	3	7	270	0.00	30.009 
12:30	28.2	28.2	28.2	69	19.4	3	7	270	0.00	30.006 
12:35	28.2	28.2	28.2	69	19.4	3	6	270	0.00	30.006 
12:40	28.2	28.2	28.2	69	19.4	3	9	270	0.00	30.006 
12:45	28.1	23.6	28.1	69	19.3	4	10	270	0.00	30.008 
12:50	28.1	28.1	28.1	69	19.3	3	7	270	0.00	30.008 
12:55	28.1	28.1	28.1	68	18.9	3	6	270	0.00	30.008 
13:00	27.9	27.9	27.9	68	18.7	3	7	270	0.00	30.009 
13:05	27.9	27.9	27.9	68	18.7	3	6	270	0.00	30.009 
13:10	27.8	27.8	27.8	68	18.6	3	6	315	0.00	30.009 
13:15	27.8	27.8	27.8	68	18.6	3	7	270	0.00	30.008 
13:20	27.8	27.8	27.8	68	18.6	3	9	292	0.00	30.008 
13:25	27.8	23.2	27.8	67	18.3	4	9	270	0.00	30.008 
13:30	27.5	27.5	27.5	67	18.0	3	6	338	0.00	30.011 
13:35	27.6	27.6	27.6	67	18.1	3	7	248	0.00	30.011 
13:40	27.8	27.8	27.8	66	17.9	3	6	315	0.00	30.011 
13:45	27.8	27.8	27.8	67	18.3	3	6	270	0.00	30.019 
13:50	27.8	27.8	27.8	67	18.3	2	5	270	0.00	30.019 
13:55	27.8	27.8	27.8	68	18.6	3	6	270	0.00	30.019 
14:00	27.6	27.6	27.6	69	18.8	3	6	248	0.00	30.019 
14:05	27.6	27.6	27.6	69	18.8	2	5	270	0.00	30.019 
14:10	27.5	27.5	27.5	69	18.7	3	6	248	0.00	30.019 
14:15	27.5	27.5	27.5	69	18.7	2	7	270	0.00	30.020 
14:20	27.5	27.5	27.5	69	18.7	3	7	270	0.00	30.020 
14:25	27.6	27.6	27.6	69	18.8	2	4	248	0.00	30.020 
14:30	27.6	27.6	27.6	68	18.4	3	6	270	0.00	30.020 
14:35	27.5	27.5	27.5	67	18.0	3	6	270	0.00	30.020 
14:40	27.2	22.5	27.2	67	17.7	4	6	270	0.00	30.020 
14:45	27.0	22.3	27.0	68	17.9	4	7	270	0.00	30.035 
14:50	27.2	27.2	27.2	69	18.4	3	6	270	0.00	30.035 
14:55	27.0	27.0	27.0	68	17.9	3	6	270	0.00	30.035 
15:00	27.0	22.3	27.0	69	18.2	4	9	270	0.00	30.045 
15:05	26.9	26.9	26.9	69	18.1	3	5	270	0.00	30.045 
15:10	27.0	27.0	27.0	69	18.2	2	5	292	0.00	30.045 
15:15	27.0	27.0	27.0	69	18.2	2	7	270	0.00	30.051 
15:20	27.0	27.0	27.0	69	18.2	2	6	248	0.00	30.051 
15:25	27.0	27.0	27.0	69	18.2	3	5	248	0.00	30.051 
15:30	27.0	27.0	27.0	69	18.2	2	4	270	0.00	30.062 
15:35	27.0	27.0	27.0	69	18.2	2	6	270	0.00	30.062 
15:40	26.7	26.7	26.7	69	17.9	2	5	270	0.00	30.062 
15:45	26.7	26.7	26.7	70	18.3	1	3	270	0.00	30.065 
15:50	26.7	26.7	26.7	69	17.9	2	5	270	0.00	30.065 
15:55	26.7	26.7	26.7	69	17.9	2	4	270	0.00	30.065 
16:00	26.7	26.7	26.7	69	17.9	1	4	338	0.00	30.066 
16:05	26.6	26.6	26.6	69	17.8	2	4	270	0.00	30.066 
16:10	26.6	26.6	26.6	69	17.8	2	5	270	0.00	30.066 
16:15	26.4	26.4	26.4	70	18.0	3	6	270	0.00	30.082 
16:20	26.4	26.4	26.4	70	18.0	3	5	315	0.00	30.082 
16:25	26.4	26.4	26.4	70	18.0	2	4	338	0.00	30.082 
16:30	26.4	26.4	26.4	70	18.0	2	4	270	0.00	30.083 
16:35	26.4	26.4	26.4	70	18.0	2	7	248	0.00	30.083 
16:40	26.3	26.3	26.3	70	17.9	3	5	248	0.00	30.083 
16:45	26.3	26.3	26.3	70	17.9	2	5	270	0.00	30.090 
16:50	26.3	26.3	26.3	70	17.9	2	3	315	0.00	30.090 
16:55	26.3	26.3	26.3	70	17.9	2	4	315	0.00	30.090 
17:00	26.1	26.1	26.1	70	17.7	1	4	338	0.00	30.095 
17:05	26.1	26.1	26.1	71	18.0	2	4	315	0.00	30.095 
17:10	26.1	26.1	26.1	71	18.0	1	4	270	0.00	30.095 
17:15	26.1	26.1	26.1	71	18.0	2	5	248	0.00	30.109 
17:20	26.0	26.0	26.0	71	17.9	2	4	270	0.00	30.109 
17:25	26.0	26.0	26.0	72	18.2	2	4	270	0.00	30.109 
17:30	25.8	25.8	25.8	72	18.0	2	4	270	0.00	30.114 
17:35	25.7	25.7	25.7	72	17.9	2	4	248	0.00	30.114 
17:40	25.6	25.6	25.6	73	18.2	2	5	248	0.00	30.114 
17:45	25.6	25.6	25.6	73	18.2	3	6	248	0.00	30.113 
17:50	25.4	25.4	25.4	73	18.0	2	4	248	0.00	30.113 
17:55	25.4	25.4	25.4	73	18.0	2	4	248	0.00	30.113 
18:00	25.3	25.3	25.3	74	18.2	2	4	248	0.00	30.117 
18:05	25.1	25.1	25.1	74	18.0	1	3	315	0.00	30.117 
18:10	25.0	25.0	25.0	74	17.9	3	5	270	0.00	30.117 
18:15	25.0	25.0	25.0	74	17.9	3	4	270	0.00	30.126 
18:20	25.0	25.0	25.0	75	18.2	2	5	270	0.00	30.126 
18:25	24.8	24.8	24.8	75	18.0	2	5	270	0.00	30.126 
18:30	24.8	24.8	24.8	75	18.0	1	5	270	0.00	30.128 
18:35	24.8	24.8	24.8	75	18.0	1	3	270	0.00	30.128 
18:40	24.8	24.8	24.8	75	18.0	1	2	292	0.00	30.128 
18:45	24.7	24.7	24.7	76	18.2	1	3	292	0.00	30.130 
18:50	24.7	24.7	24.7	76	18.2	2	4	270	0.00	30.130 
18:55	24.5	24.5	24.5	76	18.0	2	4	270	0.00	30.130 
19:00	24.5	24.5	24.5	76	18.0	1	4	270	0.00	30.127 
19:05	24.4	24.4	24.4	76	17.9	1	3	270	0.00	30.127 
19:10	24.2	24.2	24.2	76	17.7	1	3	270	0.00	30.127 
19:15	24.2	24.2	24.2	76	17.7	1	3	248	0.00	30.127 
19:20	24.2	24.2	24.2	76	17.7	2	4	248	0.00	30.127 
19:25	24.2	24.2	24.2	76	17.7	2	3	248	0.00	30.127 
19:30	24.2	24.2	24.2	76	17.7	1	3	248	0.00	30.128 
19:35	24.1	24.1	24.1	76	17.7	2	4	248	0.00	30.128 
19:40	24.1	24.1	24.1	76	17.7	1	3	248	0.00	30.128 
19:45	24.1	24.1	24.1	76	17.7	1	3	248	0.00	30.141 
19:50	24.1	24.1	24.1	76	17.7	1	3	248	0.00	30.141 
19:55	24.1	24.1	24.1	76	17.7	1	3	315	0.00	30.141 
20:00	24.1	24.1	24.1	76	17.7	1	3	315	0.00	30.144 
20:05	24.1	24.1	24.1	75	17.3	2	3	248	0.00	30.144 
20:10	24.1	24.1	24.1	75	17.3	1	3	248	0.00	30.144 
20:15	24.1	24.1	24.1	75	17.3	2	4	270	0.00	30.159 
20:20	24.1	24.1	24.1	75	17.3	1	3	270	0.00	30.159 
20:25	24.1	24.1	24.1	75	17.3	2	4	248	0.00	30.159 
20:30	24.1	24.1	24.1	76	17.7	1	3	248	0.00	30.157 
20:35	23.9	23.9	23.9	76	17.5	1	3	248	0.00	30.157 
20:40	23.9	23.9	23.9	76	17.5	1	4	248	0.00	30.157 
20:45	23.9	23.9	23.9	76	17.5	1	3	248	0.00	30.148 
20:50	23.8	23.8	23.8	76	17.4	1	3	248	0.00	30.148 
20:55	23.8	23.8	23.8	76	17.4	1	3	248	0.00	30.148 
21:00	23.8	23.8	23.8	77	17.7	1	3	248	0.00	30.159 
21:05	23.9	23.9	23.9	77	17.8	1	3	248	0.00	30.159 
21:10	23.9	23.9	23.9	77	17.8	1	3	248	0.00	30.159 
21:15	23.9	23.9	23.9	77	17.8	1	3	248	0.00	30.160 
21:20	23.8	23.8	23.8	77	17.7	1	3	248	0.00	30.160 
21:25	23.8	23.8	23.8	77	17.7	2	3	248	0.00	30.160 
21:30	23.8	23.8	23.8	77	17.7	1	3	292	0.00	30.167 
21:35	23.8	23.8	23.8	77	17.7	2	4	248	0.00	30.167 
21:40	23.6	23.6	23.6	77	17.5	1	4	248	0.00	30.167 
21:45	23.5	23.5	23.5	77	17.4	1	3	248	0.00	30.172 
21:50	23.5	23.5	23.5	77	17.4	1	3	248	0.00	30.172 
21:55	23.3	23.3	23.3	77	17.2	1	3	248	0.00	30.172 
22:00	23.3	23.3	23.3	78	17.5	1	3	248	0.00	30.177 
22:05	23.3	23.3	23.3	78	17.5	0	1	248	0.00	30.177 
22:10	23.2	23.2	23.2	78	17.4	1	3	248	0.00	30.177 
22:15	23.2	23.2	23.2	78	17.4	1	3	248	0.00	30.179 
22:20	23.0	23.0	23.0	78	17.2	1	3	248	0.00	30.179 
22:25	23.0	23.0	23.0	78	17.2	1	4	248	0.00	30.179 
22:30	22.9	22.9	22.9	78	17.1	1	3	248	0.00	30.179 
22:35	22.9	22.9	22.9	79	17.4	1	3	248	0.00	30.179 
22:40	22.7	22.7	22.7	79	17.2	0	1	248	0.00	30.179 
22:45	22.7	22.7	22.7	79	17.2	1	2	248	0.00	30.180 
22:50	22.7	22.7	22.7	79	17.2	1	2	248	0.00	30.180 
22:55	22.5	22.5	22.5	79	17.0	1	2	248	0.00	30.180 
23:00	22.5	22.5	22.5	79	17.0	1	2	248	0.00	30.181 
23:05	22.5	22.5	22.5	79	17.0	0	2	248	0.00	30.181 
23:10	22.5	22.5	22.5	79	17.0	0	2	248	0.00	30.181 
23:15	22.4	22.4	22.4	80	17.2	0	1	248	0.00	30.188 
23:20	22.4	22.4	22.4	80	17.2	0	2	248	0.00	30.188 
23:25	22.5	22.5	22.5	80	17.3	0	1	248	0.00	30.188 
23:30	22.5	22.5	22.5	80	17.3	0	2	248	0.00	30.192 
23:35	22.5	22.5	22.5	80	17.3	0	1	248	0.00	30.192 
23:40	22.5	22.5	22.5	80	17.3	0	1	248	0.00	30.192 
23:45	22.5	22.5	22.5	81	17.6	0	2	248	0.00	30.185 
23:50	22.7	22.7	22.7	81	17.8	1	2	248	0.00	30.185 
23:55	22.5	22.5	22.5	81	17.6	0	2	248	0.00	30.185 

CoCoRaHS
IN-AL-39
A2 Web Hosting
Creative Commons License
GoDaddy
search engine by freefind advanced

loaded 2018-11-15 05:40:09 • last modified 2010-11-18 10:43:29
Privacy PolicyDisclaimer
• wx.awcolley.com is powered by PmWiki v.2002016 •
• all content (unless otherwise noted) © 2018 A W Colley